Regional Weather Roundup
Issued by NWS Newport/Morehead, NC

Current Version | Previous Version | Graphics & Text | Print | Product List | Glossary Off
Versions: 1 2 3 4 5 6 7 8 9 10 11 12 13 14 15 16 17 18 19 20 21 22 23 24 25 26 27 28 29 30 31 32 33 34 35 36 37 38 39 40 41 42 43 44 45 46 47 48 49 50

000
ASUS42 KMHX 192322
RWRMHX
WEATHER ROUNDUP FOR EASTERN NORTH CAROLINA
NATIONAL WEATHER SERVICE NEWPORT/MOREHEAD CITY NC
700 PM EDT TUE AUG 19 2014

NOTE: "FAIR" INDICATES FEW OR NO CLOUDS BELOW 12,000 FEET
WITH NO SIGNIFICANT WEATHER AND/OR OBSTRUCTIONS TO VISIBILITY

NCZ015>017-031-032-045>047-102-103-200000-
NORTH COAST

CITY           SKY/WX    TMP DP  RH WIND       PRES   REMARKS
EDENTON        CLEAR     82  72  73 CALM      29.82S
ELIZABETH CITY CLOUDY    79  74  84 NE8       29.81S
KITTY HAWK     PTCLDY    79  74  83 CALM      29.80S
MANTEO         CLOUDY    81  73  78 CALM      29.81S

$$

NCZ045>047-081-094-103-104-200000-
CENTRAL COAST

CITY           SKY/WX    TMP DP  RH WIND       PRES   REMARKS
FRISCO         PTCLDY    83  74  74 NW9       29.81S
SWANQUARTER      N/A     84 N/A N/A NW5       29.77S

$$

NCZ095-097-098-100-101-200000-
SOUTHERN COAST

CITY           SKY/WX    TMP DP  RH WIND       PRES   REMARKS
BEAUFORT       CLOUDY    81  72  74 N9        29.82R
CEDAR ISLAND     N/A     84 N/A N/A NW5       29.85S
JACKSONVILLE   PTCLDY    84  75  74 S5        29.80S
NEWPORT        NOT AVBL
PINEY ISLAND   PTCLDY    87  74  64 W6        29.81S
WILMINGTON     CLOUDY    84  74  71 N5        29.81R


$$

NCZ011>013-027>030-043-044-078>080-089-090>093-098-200000-
COASTAL PLAIN

CITY           SKY/WX    TMP DP  RH WIND       PRES   REMARKS
AHOSKIE        CLEAR     78  72  82 NE3       29.83R
CLINTON        CLOUDY    77  74  92 CALM      29.84S
ELIZABETHTOWN  CLOUDY    75  74  97 CALM      29.84F
GOLDSBORO      PTSUNNY   84  75  74 N3        29.81R
GREENVILLE     CLEAR     82  73  74 CALM      29.84S
HAVELOCK       PTCLDY    86  73  65 N8        29.82S
KENANSVILLE    PTSUNNY   80  75  84 CALM      29.82S
KINSTON        MOSUNNY   82  75  78 CALM      29.82S
NEW BERN       CLEAR     85  72  65 N3        29.82S
RICHLANDS      PTCLDY    82  72  69 N3        29.81S
ROANOKE RAPIDS NOT AVBL
ROCKY MOUNT    MOSUNNY   85  73  67 NE3       29.82S
WASHINGTON     CLEAR     82  73  75 CALM      29.81F
WHITEVILLE     PTSUNNY   79  73  82 CALM      29.82S

$$

AMZ130-135-150-152-154-156-158-170-250-252-270-ANZ085-086-088-633-658-670-200000-
MARINE OBSERVATIONS

STATION/POSITION TIME  TEMP    WIND        PRES    WAVE   SWELL
                       AIR SEA DIR/SP/G            HT/PER HT/PER
                 (UTC) (F)     (DEG/KT/KT) (MB)    (FT/S) (FT/S)
CHESAPEAKE LIGHT 2300   76      40/ 13/ 13 1010.4
BUOY 44014       2300   78 79  340/  4/  6 1009.2    3/ 7   3/ 7
DUCK             2300   79 78   10/  4/  5 1008.7
2E DUCK          2300                        N/A     1/10
OREGON INLET     2300   81 82  310/  8/ 10 1009.2
BUOY 44095       2300      81                N/A     2/ 7
20E OREGON INLET NOT AVBL
HATTERAS CG      2300   83 83  300/ 11/ 13 1009.9
DIAMOND BUOY     2300   80     230/ 10/ 12 1009.2    4/ 6   3/ 6
CAPE LOOKOUT     2300   82     230/  8/ 12 1009.5
BEAUFORT LAB     2300   82 82   10/  4/  9 1009.4
30 SE NEW RIVER  2300   82 82  230/ 14/ 16 1008.9    5/ 7   3/ 7
5 SE WRIGHTSVILL 2300   80 82  230/ 12/ 14   N/A
BUOY 41002       2229   82 81  250/ 14/ 16 1013.4    5/ 7   3/ 7
BUOY 41004       2300   83 83  240/ 19/ 23 1010.5    5/ 6   2/ 9

$$



USA.gov is the U.S. government's official web portal to all federal, state and local government web resources and services.